Time,TemperatureF,DewpointF,PressureIn,WindDirection,WindDirectionDegrees,WindSpeedMPH,WindSpeedGustMPH,Humidity,HourlyPrecipIn,Conditions,Clouds,dailyrainin,SoftwareType,DateUTC
2013-01-29 00:02:00,35.2,30.6,32.89,WNW,291,6.0,12.0,83,0.00,OVC,OVC,0.00,WeatherDisplay:10.23,2013-01-29 08:02:00,
2013-01-29 00:08:00,35.4,30.8,32.89,WNW,287,6.0,10.0,83,0.00,OVC,OVC,0.00,WeatherDisplay:10.23,2013-01-29 08:08:00,
2013-01-29 00:17:00,35.6,30.6,32.89,WNW,283,6.0,16.0,82,0.00,OVC,OVC,0.00,WeatherDisplay:10.23,2013-01-29 08:17:00,
2013-01-29 00:23:00,35.6,30.9,32.89,WNW,284,8.0,12.0,83,0.00,OVC,OVC,0.00,WeatherDisplay:10.23,2013-01-29 08:23:00,
2013-01-29 00:32:00,35.3,30.7,32.89,WNW,291,3.0,12.0,83,0.00,OVC,OVC,0.00,WeatherDisplay:10.23,2013-01-29 08:32:00,
2013-01-29 00:38:00,35.1,30.8,32.89,WNW,292,5.0,12.0,84,0.00,OVC,OVC,0.00,WeatherDisplay:10.23,2013-01-29 08:38:00,
2013-01-29 00:47:00,34.9,30.5,32.89,WNW,291,6.0,10.0,84,0.00,OVC,OVC,0.00,WeatherDisplay:10.23,2013-01-29 08:47:00,
2013-01-29 00:53:00,34.8,30.8,32.89,WNW,295,7.0,10.0,85,0.00,OVC,OVC,0.00,WeatherDisplay:10.23,2013-01-29 08:53:00,
2013-01-29 01:02:00,34.9,30.5,32.89,WNW,292,5.0,8.0,84,0.00,OVC,OVC,0.00,WeatherDisplay:10.23,2013-01-29 09:02:00,
2013-01-29 01:08:00,34.9,30.6,32.89,WNW,292,6.0,9.0,84,0.00,OVC,OVC,0.00,WeatherDisplay:10.23,2013-01-29 09:08:00,
2013-01-29 01:17:00,34.8,30.5,32.89,WNW,286,7.0,12.0,84,0.00,OVC,OVC,0.00,WeatherDisplay:10.23,2013-01-29 09:17:00,
2013-01-29 01:23:00,35.2,30.9,32.89,WNW,285,3.0,12.0,84,0.00,OVC,OVC,0.00,WeatherDisplay:10.23,2013-01-29 09:23:00,
2013-01-29 01:32:00,35.3,30.7,32.89,WNW,291,7.0,9.0,83,0.00,OVC,OVC,0.00,WeatherDisplay:10.23,2013-01-29 09:32:00,
2013-01-29 01:38:00,35.3,30.7,32.89,WNW,297,5.0,6.0,83,0.00,OVC,OVC,0.00,WeatherDisplay:10.23,2013-01-29 09:38:00,
2013-01-29 01:47:00,35.6,30.7,32.89,WNW,292,5.0,9.0,82,0.00,OVC,OVC,0.00,WeatherDisplay:10.23,2013-01-29 09:47:00,
2013-01-29 01:53:00,35.6,30.7,32.89,WNW,299,3.0,7.0,82,0.00,CLR,CLR,0.00,WeatherDisplay:10.23,2013-01-29 09:53:00,
2013-01-29 02:02:00,35.7,30.5,32.89,WNW,301,2.0,6.0,81,0.00,CLR,CLR,0.00,WeatherDisplay:10.23,2013-01-29 10:02:00,
2013-01-29 02:08:00,35.8,30.2,32.89,NW,310,5.0,6.0,80,0.00,CLR,CLR,0.00,WeatherDisplay:10.23,2013-01-29 10:08:00,
2013-01-29 02:17:00,36.0,30.4,32.89,WNW,296,5.0,9.0,80,0.00,CLR,CLR,0.00,WeatherDisplay:10.23,2013-01-29 10:17:00,
2013-01-29 02:23:00,36.0,30.1,32.89,WNW,289,3.0,6.0,79,0.00,CLR,CLR,0.00,WeatherDisplay:10.23,2013-01-29 10:23:00,
2013-01-29 02:32:00,36.0,30.1,32.89,WNW,285,3.0,8.0,79,0.00,CLR,CLR,0.00,WeatherDisplay:10.23,2013-01-29 10:32:00,
2013-01-29 02:37:00,36.0,30.1,32.89,WNW,291,2.0,5.0,79,0.00,CLR,CLR,0.00,WeatherDisplay:10.23,2013-01-29 10:37:00,
2013-01-29 02:47:00,36.3,30.4,32.89,WNW,303,7.0,12.0,79,0.00,CLR,CLR,0.00,WeatherDisplay:10.23,2013-01-29 10:47:00,
2013-01-29 02:53:00,36.2,30.3,32.89,NW,306,5.0,12.0,79,0.00,OVC,OVC,0.00,WeatherDisplay:10.23,2013-01-29 10:53:00,
2013-01-29 03:02:00,36.1,30.2,32.89,NW,307,7.0,12.0,79,0.00,OVC,OVC,0.00,WeatherDisplay:10.23,2013-01-29 11:02:00,
2013-01-29 03:08:00,36.1,30.2,32.89,WNW,299,8.0,12.0,79,0.00,OVC,OVC,0.00,WeatherDisplay:10.23,2013-01-29 11:08:00,
2013-01-29 03:17:00,36.4,30.2,32.89,WNW,292,8.0,17.0,78,0.00,OVC,OVC,0.00,WeatherDisplay:10.23,2013-01-29 11:17:00,
2013-01-29 03:23:00,36.5,30.3,32.89,WNW,297,9.0,18.0,78,0.00,OVC,OVC,0.00,WeatherDisplay:10.23,2013-01-29 11:23:00,
2013-01-29 03:32:00,36.6,30.4,32.89,WNW,296,8.0,14.0,78,0.00,OVC,OVC,0.00,WeatherDisplay:10.23,2013-01-29 11:32:00,
2013-01-29 03:38:00,36.6,30.4,32.89,WNW,301,8.0,14.0,78,0.00,OVC,OVC,0.00,WeatherDisplay:10.23,2013-01-29 11:38:00,
2013-01-29 03:47:00,36.8,30.6,32.89,WNW,293,12.0,18.0,78,0.00,OVC,OVC,0.00,WeatherDisplay:10.23,2013-01-29 11:47:00,
2013-01-29 03:53:00,36.8,30.6,32.89,WNW,294,13.0,17.0,78,0.00,OVC,OVC,0.00,WeatherDisplay:10.23,2013-01-29 11:53:00,
2013-01-29 04:02:00,36.7,30.5,32.89,NW,308,9.0,15.0,78,0.00,OVC,OVC,0.00,WeatherDisplay:10.23,2013-01-29 12:02:00,
2013-01-29 04:08:00,36.7,30.5,32.89,NW,307,14.0,18.0,78,0.00,OVC,OVC,0.00,WeatherDisplay:10.23,2013-01-29 12:08:00,
2013-01-29 04:17:00,36.7,30.5,32.89,WNW,302,10.0,15.0,78,0.00,OVC,OVC,0.00,WeatherDisplay:10.23,2013-01-29 12:17:00,
2013-01-29 04:23:00,36.8,30.6,32.89,NW,305,10.0,16.0,78,0.00,OVC,OVC,0.00,WeatherDisplay:10.23,2013-01-29 12:23:00,
2013-01-29 04:32:00,36.6,30.4,32.89,WNW,300,9.0,15.0,78,0.00,OVC,OVC,0.00,WeatherDisplay:10.23,2013-01-29 12:32:00,
2013-01-29 04:37:00,36.5,30.6,32.89,WNW,292,8.0,13.0,79,0.00,OVC,OVC,0.00,WeatherDisplay:10.23,2013-01-29 12:37:00,
2013-01-29 04:47:00,36.7,31.7,32.89,NW,308,6.0,12.0,82,0.00,OVC,OVC,0.00,WeatherDisplay:10.23,2013-01-29 12:47:00,
2013-01-29 04:53:00,36.9,30.4,32.89,WNW,301,6.0,17.0,77,0.00,CLR,CLR,0.00,WeatherDisplay:10.23,2013-01-29 12:53:00,
2013-01-29 05:02:00,37.1,30.6,32.89,NW,308,7.0,17.0,77,0.00,CLR,CLR,0.00,WeatherDisplay:10.23,2013-01-29 13:02:00,
2013-01-29 05:08:00,37.1,30.6,32.89,NW,308,5.0,17.0,77,0.00,CLR,CLR,0.00,WeatherDisplay:10.23,2013-01-29 13:08:00,
2013-01-29 05:17:00,37.0,30.8,32.89,NW,304,9.0,12.0,78,0.00,CLR,CLR,0.00,WeatherDisplay:10.23,2013-01-29 13:17:00,
2013-01-29 05:23:00,37.0,30.5,32.89,WNW,297,7.0,12.0,77,0.00,CLR,CLR,0.00,WeatherDisplay:10.23,2013-01-29 13:23:00,
2013-01-29 05:32:00,37.3,30.8,32.89,WNW,297,9.0,20.0,77,0.00,CLR,CLR,0.00,WeatherDisplay:10.23,2013-01-29 13:32:00,
2013-01-29 05:38:00,37.4,30.8,32.89,WNW,296,10.0,20.0,77,0.00,CLR,CLR,0.00,WeatherDisplay:10.23,2013-01-29 13:38:00,
2013-01-29 05:47:00,37.3,30.5,32.89,WNW,298,15.0,22.0,76,0.00,CLR,CLR,0.00,WeatherDisplay:10.23,2013-01-29 13:47:00,
2013-01-29 05:53:00,37.4,30.5,32.89,WNW,299,16.0,22.0,76,0.00,CLR,CLR,0.00,WeatherDisplay:10.23,2013-01-29 13:53:00,
2013-01-29 06:02:00,37.6,30.4,32.89,NW,304,14.0,26.0,75,0.00,CLR,CLR,0.00,WeatherDisplay:10.23,2013-01-29 14:02:00,
2013-01-29 06:08:00,37.6,30.7,32.89,NW,304,16.0,29.0,76,0.00,CLR,CLR,0.00,WeatherDisplay:10.23,2013-01-29 14:08:00,
2013-01-29 06:17:00,37.6,30.7,32.89,NW,313,16.0,26.0,76,0.00,CLR,CLR,0.00,WeatherDisplay:10.23,2013-01-29 14:17:00,
2013-01-29 06:23:00,37.6,30.4,32.89,NW,313,14.0,23.0,75,0.00,CLR,CLR,0.00,WeatherDisplay:10.23,2013-01-29 14:23:00,
2013-01-29 06:32:00,37.6,30.4,32.89,NW,304,12.0,21.0,75,0.00,CLR,CLR,0.00,WeatherDisplay:10.23,2013-01-29 14:32:00,
2013-01-29 06:37:00,37.6,30.4,32.89,WNW,301,9.0,20.0,75,0.00,CLR,CLR,0.00,WeatherDisplay:10.23,2013-01-29 14:37:00,
2013-01-29 06:43:00,37.7,30.5,32.89,NW,311,12.0,20.0,75,0.00,CLR,CLR,0.00,WeatherDisplay:10.23,2013-01-29 14:43:00,
2013-01-29 06:53:00,37.7,30.8,32.89,NW,312,13.0,18.0,76,0.00,OVC,OVC,0.00,WeatherDisplay:10.23,2013-01-29 14:53:00,
2013-01-29 07:02:00,37.8,30.6,32.89,NW,313,9.0,23.0,75,0.00,OVC,OVC,0.00,WeatherDisplay:10.23,2013-01-29 15:02:00,
2013-01-29 07:08:00,37.7,30.8,32.89,NW,318,13.0,25.0,76,0.00,OVC,OVC,0.00,WeatherDisplay:10.23,2013-01-29 15:08:00,
2013-01-29 07:17:00,37.8,30.9,32.89,NW,305,10.0,17.0,76,0.00,OVC,OVC,0.00,WeatherDisplay:10.23,2013-01-29 15:17:00,
2013-01-29 07:23:00,37.7,30.8,32.89,WNW,297,10.0,20.0,76,0.00,OVC,OVC,0.00,WeatherDisplay:10.23,2013-01-29 15:23:00,
2013-01-29 07:32:00,37.8,30.9,32.89,WNW,297,8.0,20.0,76,0.00,OVC,OVC,0.00,WeatherDisplay:10.23,2013-01-29 15:32:00,
2013-01-29 07:38:00,37.8,30.9,32.89,WNW,297,10.0,15.0,76,0.00,OVC,OVC,0.00,WeatherDisplay:10.23,2013-01-29 15:38:00,
2013-01-29 07:47:00,37.9,31.0,32.89,WNW,303,7.0,17.0,76,0.00,OVC,OVC,0.00,WeatherDisplay:10.23,2013-01-29 15:47:00,
2013-01-29 07:53:00,38.0,30.8,32.89,NW,307,12.0,18.0,75,0.00,OVC,OVC,0.00,WeatherDisplay:10.23,2013-01-29 15:53:00,
2013-01-29 08:02:00,38.1,30.9,32.89,NW,305,10.0,15.0,75,0.00,OVC,OVC,0.00,WeatherDisplay:10.23,2013-01-29 16:02:00,
2013-01-29 08:08:00,38.2,31.0,32.89,NW,306,12.0,14.0,75,0.00,OVC,OVC,0.00,WeatherDisplay:10.23,2013-01-29 16:08:00,
2013-01-29 08:17:00,38.2,31.0,32.89,WNW,295,10.0,17.0,75,0.00,OVC,OVC,0.00,WeatherDisplay:10.23,2013-01-29 16:17:00,
2013-01-29 08:23:00,38.3,31.1,32.89,WNW,292,10.0,17.0,75,0.00,OVC,OVC,0.00,WeatherDisplay:10.23,2013-01-29 16:23:00,
2013-01-29 08:32:00,38.6,31.0,32.89,WNW,295,14.0,20.0,74,0.00,OVC,OVC,0.00,WeatherDisplay:10.23,2013-01-29 16:32:00,
2013-01-29 08:37:00,38.8,30.9,32.89,WNW,292,9.0,20.0,73,0.00,OVC,OVC,0.00,WeatherDisplay:10.23,2013-01-29 16:37:00,
2013-01-29 08:42:00,38.9,31.0,32.89,WNW,300,7.0,20.0,73,0.00,OVC,OVC,0.00,WeatherDisplay:10.23,2013-01-29 16:42:00,
2013-01-29 08:53:00,38.9,31.0,32.89,WNW,292,3.0,13.0,73,0.00,OVC,OVC,0.00,WeatherDisplay:10.23,2013-01-29 16:53:00,
2013-01-29 09:02:00,38.9,31.0,32.89,WNW,300,3.0,8.0,73,0.00,OVC,OVC,0.00,WeatherDisplay:10.23,2013-01-29 17:02:00,
2013-01-29 09:08:00,39.0,31.1,32.89,WNW,295,6.0,10.0,73,0.00,OVC,OVC,0.00,WeatherDisplay:10.23,2013-01-29 17:08:00,
2013-01-29 09:17:00,39.3,31.1,32.89,NW,316,3.0,8.0,72,0.00,OVC,OVC,0.00,WeatherDisplay:10.23,2013-01-29 17:17:00,
2013-01-29 09:23:00,39.4,31.1,32.89,NW,308,3.0,6.0,72,0.00,OVC,OVC,0.00,WeatherDisplay:10.23,2013-01-29 17:23:00,
2013-01-29 09:32:00,39.5,31.2,32.89,NW,311,5.0,7.0,72,0.00,OVC,OVC,0.00,WeatherDisplay:10.23,2013-01-29 17:32:00,
2013-01-29 09:38:00,39.5,31.2,32.89,NW,313,3.0,8.0,72,0.00,OVC,OVC,0.00,WeatherDisplay:10.23,2013-01-29 17:38:00,
2013-01-29 09:47:00,39.8,31.2,32.89,WNW,290,14.0,24.0,71,0.00,OVC,OVC,0.00,WeatherDisplay:10.23,2013-01-29 17:47:00,
2013-01-29 09:53:00,39.7,31.1,32.89,WNW,292,10.0,20.0,71,0.00,OVC,OVC,0.00,WeatherDisplay:10.23,2013-01-29 17:53:00,
2013-01-29 10:02:00,39.7,31.1,32.89,WNW,295,13.0,18.0,71,0.00,OVC,OVC,0.00,WeatherDisplay:10.23,2013-01-29 18:02:00,
2013-01-29 10:08:00,39.8,31.2,32.89,WNW,295,13.0,20.0,71,0.00,OVC,OVC,0.00,WeatherDisplay:10.23,2013-01-29 18:08:00,
2013-01-29 10:17:00,39.9,31.3,32.89,WNW,285,13.0,20.0,71,0.00,OVC,OVC,0.00,WeatherDisplay:10.23,2013-01-29 18:17:00,
2013-01-29 10:23:00,40.0,31.4,32.89,WNW,288,10.0,24.0,71,0.00,OVC,OVC,0.00,WeatherDisplay:10.23,2013-01-29 18:23:00,
2013-01-29 10:32:00,40.2,31.5,32.89,WNW,291,8.0,18.0,71,0.00,OVC,OVC,0.00,WeatherDisplay:10.23,2013-01-29 18:32:00,
2013-01-29 10:37:00,40.3,31.3,32.89,WNW,288,13.0,20.0,70,0.00,OVC,OVC,0.00,WeatherDisplay:10.23,2013-01-29 18:37:00,
2013-01-29 10:42:00,40.5,31.5,32.89,WNW,288,9.0,20.0,70,0.00,OVC,OVC,0.00,WeatherDisplay:10.23,2013-01-29 18:42:00,
2013-01-29 10:53:00,40.6,31.6,32.89,WNW,288,9.0,17.0,70,0.00,OVC,OVC,0.00,WeatherDisplay:10.23,2013-01-29 18:53:00,
2013-01-29 11:02:00,40.8,31.4,32.89,WNW,291,13.0,20.0,69,0.00,OVC,OVC,0.00,WeatherDisplay:10.23,2013-01-29 19:02:00,
2013-01-29 11:08:00,41.0,31.6,32.89,WNW,295,6.0,16.0,69,0.00,OVC,OVC,0.00,WeatherDisplay:10.23,2013-01-29 19:08:00,
2013-01-29 11:17:00,41.3,31.5,32.89,WNW,291,13.0,17.0,68,0.00,OVC,OVC,0.00,WeatherDisplay:10.23,2013-01-29 19:17:00,
2013-01-29 11:23:00,41.4,31.6,32.89,WNW,291,7.0,21.0,68,0.00,OVC,OVC,0.00,WeatherDisplay:10.23,2013-01-29 19:23:00,
2013-01-29 11:32:00,41.4,31.6,32.89,WNW,291,10.0,25.0,68,0.00,OVC,OVC,0.00,WeatherDisplay:10.23,2013-01-29 19:32:00,
2013-01-29 11:38:00,41.4,31.6,32.89,WNW,290,8.0,20.0,68,0.00,OVC,OVC,0.00,WeatherDisplay:10.23,2013-01-29 19:38:00,
2013-01-29 11:47:00,41.3,31.9,32.89,WNW,292,12.0,16.0,69,0.00,OVC,OVC,0.00,WeatherDisplay:10.23,2013-01-29 19:47:00,
2013-01-29 11:54:00,41.4,32.0,32.89,WNW,292,9.0,16.0,69,0.00,OVC,OVC,0.00,WeatherDisplay:10.23,2013-01-29 19:54:00,
2013-01-29 12:02:00,41.5,31.8,32.89,WNW,289,8.0,14.0,68,0.00,OVC,OVC,0.00,WeatherDisplay:10.23,2013-01-29 20:02:00,
2013-01-29 12:08:00,41.5,32.1,32.89,WNW,292,9.0,15.0,69,0.00,OVC,OVC,0.00,WeatherDisplay:10.23,2013-01-29 20:08:00,
2013-01-29 12:17:00,41.6,31.8,32.89,WNW,288,7.0,13.0,68,0.00,OVC,OVC,0.00,WeatherDisplay:10.23,2013-01-29 20:17:00,
2013-01-29 12:23:00,41.7,31.9,32.89,WNW,292,6.0,12.0,68,0.00,OVC,OVC,0.00,WeatherDisplay:10.23,2013-01-29 20:23:00,
2013-01-29 12:32:00,41.8,32.0,32.89,WNW,297,5.0,12.0,68,0.00,OVC,OVC,0.00,WeatherDisplay:10.23,2013-01-29 20:32:00,
2013-01-29 12:37:00,42.0,32.2,32.89,WNW,294,8.0,14.0,68,0.00,OVC,OVC,0.00,WeatherDisplay:10.23,2013-01-29 20:37:00,
2013-01-29 12:42:00,42.2,32.0,32.89,WNW,294,12.0,16.0,67,0.00,OVC,OVC,0.00,WeatherDisplay:10.23,2013-01-29 20:42:00,
2013-01-29 12:53:00,42.0,32.2,32.89,WNW,290,10.0,16.0,68,0.00,CLR,CLR,0.00,WeatherDisplay:10.23,2013-01-29 20:53:00,
2013-01-29 13:02:00,41.9,32.5,32.89,WNW,291,15.0,24.0,69,0.00,CLR,CLR,0.00,WeatherDisplay:10.23,2013-01-29 21:02:00,
2013-01-29 13:08:00,41.8,32.4,32.89,WNW,292,12.0,23.0,69,0.00,CLR,CLR,0.00,WeatherDisplay:10.23,2013-01-29 21:08:00,
2013-01-29 13:17:00,41.8,32.4,32.89,WNW,286,10.0,20.0,69,0.00,CLR,CLR,0.00,WeatherDisplay:10.23,2013-01-29 21:17:00,
2013-01-29 13:23:00,42.0,32.6,32.89,WNW,291,13.0,21.0,69,0.00,CLR,CLR,0.00,WeatherDisplay:10.23,2013-01-29 21:23:00,
2013-01-29 13:32:00,43.0,32.8,32.89,WNW,290,13.0,16.0,67,0.00,CLR,CLR,0.00,WeatherDisplay:10.23,2013-01-29 21:32:00,
2013-01-29 13:38:00,42.8,32.6,32.89,WNW,285,10.0,22.0,67,0.00,CLR,CLR,0.00,WeatherDisplay:10.23,2013-01-29 21:38:00,
2013-01-29 13:47:00,42.4,32.6,32.89,West,279,9.0,20.0,68,0.00,CLR,CLR,0.00,WeatherDisplay:10.23,2013-01-29 21:47:00,
2013-01-29 13:53:00,42.2,32.4,32.89,West,281,13.0,20.0,68,0.00,CLR,CLR,0.00,WeatherDisplay:10.23,2013-01-29 21:53:00,
2013-01-29 14:02:00,42.5,32.7,32.89,WNW,284,14.0,20.0,68,0.00,CLR,CLR,0.00,WeatherDisplay:10.23,2013-01-29 22:02:00,
2013-01-29 14:08:00,42.1,32.3,32.89,WNW,284,9.0,21.0,68,0.00,CLR,CLR,0.00,WeatherDisplay:10.23,2013-01-29 22:08:00,
2013-01-29 14:17:00,42.2,32.4,32.89,WNW,292,9.0,21.0,68,0.00,CLR,CLR,0.00,WeatherDisplay:10.23,2013-01-29 22:17:00,
2013-01-29 14:22:00,42.3,32.5,32.89,WNW,292,8.0,20.0,68,0.00,CLR,CLR,0.00,WeatherDisplay:10.23,2013-01-29 22:22:00,
2013-01-29 14:31:00,42.1,32.3,32.89,WNW,292,10.0,16.0,68,0.00,CLR,CLR,0.00,WeatherDisplay:10.23,2013-01-29 22:31:00,
2013-01-29 14:37:00,42.1,32.3,32.89,WNW,288,10.0,17.0,68,0.00,CLR,CLR,0.00,WeatherDisplay:10.23,2013-01-29 22:37:00,
2013-01-29 14:42:00,42.2,32.4,32.89,WNW,289,8.0,17.0,68,0.00,CLR,CLR,0.00,WeatherDisplay:10.23,2013-01-29 22:42:00,
2013-01-29 14:54:00,43.1,32.9,32.89,WNW,290,13.0,20.0,67,0.00,CLR,CLR,0.00,WeatherDisplay:10.23,2013-01-29 22:54:00,
2013-01-29 15:02:00,43.1,32.9,32.89,WNW,295,9.0,20.0,67,0.00,CLR,CLR,0.00,WeatherDisplay:10.23,2013-01-29 23:02:00,
2013-01-29 15:08:00,43.3,32.7,32.89,WNW,296,7.0,16.0,66,0.00,CLR,CLR,0.00,WeatherDisplay:10.23,2013-01-29 23:08:00,
2013-01-29 15:17:00,43.2,33.0,32.89,WNW,302,9.0,20.0,67,0.00,CLR,CLR,0.00,WeatherDisplay:10.23,2013-01-29 23:17:00,
2013-01-29 15:23:00,43.2,32.6,32.89,WNW,295,9.0,22.0,66,0.00,CLR,CLR,0.00,WeatherDisplay:10.23,2013-01-29 23:23:00,
2013-01-29 15:32:00,42.6,32.4,32.89,WNW,292,7.0,14.0,67,0.00,CLR,CLR,0.00,WeatherDisplay:10.23,2013-01-29 23:32:00,
2013-01-29 15:38:00,42.4,32.2,32.89,WNW,297,7.0,17.0,67,0.00,CLR,CLR,0.00,WeatherDisplay:10.23,2013-01-29 23:38:00,
2013-01-29 15:47:00,41.5,32.1,32.89,WNW,294,9.0,13.0,69,0.00,CLR,CLR,0.00,WeatherDisplay:10.23,2013-01-29 23:47:00,
2013-01-29 15:53:00,41.0,32.0,32.89,WNW,297,8.0,14.0,70,0.00,OVC,OVC,0.00,WeatherDisplay:10.23,2013-01-29 23:53:00,
2013-01-29 16:02:00,40.4,32.1,32.89,WNW,295,6.0,13.0,72,0.00,OVC,OVC,0.00,WeatherDisplay:10.23,2013-01-30 00:02:00,
2013-01-29 16:08:00,40.4,32.1,32.89,WNW,292,8.0,12.0,72,0.00,OVC,OVC,0.00,WeatherDisplay:10.23,2013-01-30 00:08:00,
2013-01-29 16:17:00,40.3,32.0,32.89,WNW,292,7.0,13.0,72,0.00,OVC,OVC,0.00,WeatherDisplay:10.23,2013-01-30 00:17:00,
2013-01-29 16:22:00,40.3,32.0,32.89,WNW,292,9.0,12.0,72,0.00,OVC,OVC,0.00,WeatherDisplay:10.23,2013-01-30 00:22:00,
2013-01-29 16:31:00,40.2,31.9,32.89,WNW,297,7.0,13.0,72,0.00,OVC,OVC,0.00,WeatherDisplay:10.23,2013-01-30 00:31:00,
2013-01-29 16:38:00,40.3,32.3,32.89,WNW,300,9.0,12.0,73,0.00,OVC,OVC,0.00,WeatherDisplay:10.23,2013-01-30 00:38:00,
2013-01-29 16:47:00,40.3,32.3,32.89,WNW,295,7.0,12.0,73,0.00,OVC,OVC,0.00,WeatherDisplay:10.23,2013-01-30 00:47:00,
2013-01-29 16:53:00,40.4,32.4,32.89,WNW,291,5.0,13.0,73,0.00,OVC,OVC,0.00,WeatherDisplay:10.23,2013-01-30 00:53:00,
2013-01-29 17:02:00,40.3,32.4,32.89,WNW,295,7.0,12.0,73,0.00,OVC,OVC,0.00,WeatherDisplay:10.23,2013-01-30 01:02:00,
2013-01-29 17:08:00,40.2,32.3,32.89,WNW,298,7.0,12.0,73,0.00,OVC,OVC,0.00,WeatherDisplay:10.23,2013-01-30 01:08:00,
2013-01-29 17:17:00,40.2,32.2,32.89,WNW,294,8.0,14.0,73,0.00,OVC,OVC,0.00,WeatherDisplay:10.23,2013-01-30 01:17:00,
2013-01-29 17:23:00,40.1,32.5,32.89,WNW,299,6.0,10.0,74,0.00,OVC,OVC,0.00,WeatherDisplay:10.23,2013-01-30 01:23:00,
2013-01-29 17:32:00,40.0,32.1,32.89,WNW,295,9.0,15.0,73,0.00,OVC,OVC,0.00,WeatherDisplay:10.23,2013-01-30 01:32:00,
2013-01-29 17:38:00,40.0,32.1,32.89,WNW,292,8.0,15.0,73,0.00,OVC,OVC,0.00,WeatherDisplay:10.23,2013-01-30 01:38:00,
2013-01-29 17:47:00,40.1,32.2,32.89,WNW,292,8.0,15.0,73,0.00,OVC,OVC,0.00,WeatherDisplay:10.23,2013-01-30 01:47:00,
2013-01-29 17:53:00,40.1,32.2,32.89,WNW,292,9.0,15.0,73,0.00,OVC,OVC,0.00,WeatherDisplay:10.23,2013-01-30 01:53:00,
2013-01-29 18:02:00,40.2,32.2,32.89,NW,304,3.0,12.0,73,0.00,OVC,OVC,0.00,WeatherDisplay:10.23,2013-01-30 02:02:00,
2013-01-29 18:08:00,40.1,32.2,32.89,NW,304,7.0,10.0,73,0.00,OVC,OVC,0.00,WeatherDisplay:10.23,2013-01-30 02:08:00,
2013-01-29 18:17:00,39.9,32.0,32.89,NW,311,5.0,6.0,73,0.00,OVC,OVC,0.00,WeatherDisplay:10.23,2013-01-30 02:17:00,
2013-01-29 18:22:00,39.9,32.0,32.89,WNW,303,6.0,9.0,73,0.00,OVC,OVC,0.00,WeatherDisplay:10.23,2013-01-30 02:22:00,
2013-01-29 18:31:00,40.0,32.1,32.89,WNW,302,6.0,9.0,73,0.00,OVC,OVC,0.00,WeatherDisplay:10.23,2013-01-30 02:31:00,
2013-01-29 18:38:00,40.4,32.1,32.89,WNW,300,5.0,9.0,72,0.00,OVC,OVC,0.00,WeatherDisplay:10.23,2013-01-30 02:38:00,
2013-01-29 18:47:00,40.6,32.3,32.89,WNW,299,1.0,3.0,72,0.00,OVC,OVC,0.00,WeatherDisplay:10.23,2013-01-30 02:47:00,
2013-01-29 18:53:00,40.5,32.2,32.89,WNW,300,1.0,5.0,72,0.00,CLR,CLR,0.00,WeatherDisplay:10.23,2013-01-30 02:53:00,
2013-01-29 19:02:00,40.5,32.2,32.89,WNW,292,0.0,3.0,72,0.00,CLR,CLR,0.00,WeatherDisplay:10.23,2013-01-30 03:02:00,
2013-01-29 19:08:00,40.2,31.9,32.89,WNW,292,0.0,2.0,72,0.00,CLR,CLR,0.00,WeatherDisplay:10.23,2013-01-30 03:08:00,
2013-01-29 19:17:00,39.9,32.0,32.89,WNW,292,1.0,3.0,73,0.00,CLR,CLR,0.00,WeatherDisplay:10.23,2013-01-30 03:17:00,
2013-01-29 19:23:00,40.1,31.8,32.89,WNW,292,1.0,2.0,72,0.00,CLR,CLR,0.00,WeatherDisplay:10.23,2013-01-30 03:23:00,
2013-01-29 19:32:00,40.0,32.0,32.89,WNW,292,0.0,0.0,73,0.00,CLR,CLR,0.00,WeatherDisplay:10.23,2013-01-30 03:32:00,
2013-01-29 19:38:00,39.7,31.8,32.89,WNW,292,1.0,3.0,73,0.00,CLR,CLR,0.00,WeatherDisplay:10.23,2013-01-30 03:38:00,
2013-01-29 19:47:00,39.5,31.9,32.89,WNW,292,0.0,5.0,74,0.00,CLR,CLR,0.00,WeatherDisplay:10.23,2013-01-30 03:47:00,
2013-01-29 19:53:00,39.6,32.0,32.89,WNW,292,0.0,3.0,74,0.00,CLR,CLR,0.00,WeatherDisplay:10.23,2013-01-30 03:53:00,
2013-01-29 20:02:00,40.0,32.1,32.89,WNW,292,0.0,3.0,73,0.00,CLR,CLR,0.00,WeatherDisplay:10.23,2013-01-30 04:02:00,
2013-01-29 20:08:00,39.8,31.9,32.89,WNW,292,0.0,2.0,73,0.00,CLR,CLR,0.00,WeatherDisplay:10.23,2013-01-30 04:08:00,
2013-01-29 20:17:00,39.7,32.1,32.89,WNW,292,0.0,0.0,74,0.00,CLR,CLR,0.00,WeatherDisplay:10.23,2013-01-30 04:17:00,
2013-01-29 20:22:00,39.7,32.1,32.89,WNW,292,2.0,3.0,74,0.00,CLR,CLR,0.00,WeatherDisplay:10.23,2013-01-30 04:22:00,
2013-01-29 20:31:00,38.8,31.5,32.89,NW,318,0.0,3.0,75,0.00,CLR,CLR,0.00,WeatherDisplay:10.23,2013-01-30 04:31:00,
2013-01-29 20:38:00,38.4,31.5,32.89,NNW,337,0.0,2.0,76,0.00,CLR,CLR,0.00,WeatherDisplay:10.23,2013-01-30 04:38:00,
2013-01-29 20:47:00,38.4,31.5,32.89,NNW,337,0.0,3.0,76,0.00,CLR,CLR,0.00,WeatherDisplay:10.23,2013-01-30 04:47:00,
2013-01-29 20:53:00,38.3,31.7,32.89,NNW,337,0.0,0.0,77,0.00,CLR,CLR,0.00,WeatherDisplay:10.23,2013-01-30 04:53:00,
2013-01-29 21:02:00,38.2,31.6,32.89,NNW,337,0.0,0.0,77,0.00,CLR,CLR,0.00,WeatherDisplay:10.23,2013-01-30 05:02:00,
2013-01-29 21:08:00,38.2,31.6,32.89,NNW,337,2.0,2.0,77,0.00,CLR,CLR,0.00,WeatherDisplay:10.23,2013-01-30 05:08:00,
2013-01-29 21:12:00,38.4,31.8,32.89,NNW,337,0.0,3.0,77,0.00,CLR,CLR,0.00,WeatherDisplay:10.23,2013-01-30 05:12:00,
2013-01-29 21:17:00,38.7,31.8,32.89,NNW,337,0.0,3.0,76,0.00,CLR,CLR,0.00,WeatherDisplay:10.23,2013-01-30 05:17:00,
2013-01-29 21:23:00,38.9,32.0,32.89,NNW,332,5.0,6.0,76,0.00,CLR,CLR,0.00,WeatherDisplay:10.23,2013-01-30 05:23:00,
2013-01-29 21:27:00,39.2,32.0,32.89,NW,320,3.0,6.0,75,0.00,CLR,CLR,0.00,WeatherDisplay:10.23,2013-01-30 05:27:00,
2013-01-29 21:32:00,39.4,31.8,32.89,NW,314,2.0,7.0,74,0.00,CLR,CLR,0.00,WeatherDisplay:10.23,2013-01-30 05:32:00,
2013-01-29 21:38:00,39.3,32.1,32.89,WNW,301,8.0,12.0,75,0.00,CLR,CLR,0.00,WeatherDisplay:10.23,2013-01-30 05:38:00,
2013-01-29 21:47:00,39.5,32.0,32.89,WNW,292,7.0,16.0,74,0.00,CLR,CLR,0.00,WeatherDisplay:10.23,2013-01-30 05:47:00,
2013-01-29 21:53:00,39.6,32.0,32.89,WNW,292,9.0,15.0,74,0.00,OVC,OVC,0.00,WeatherDisplay:10.23,2013-01-30 05:53:00,
2013-01-29 22:02:00,39.6,32.0,32.89,WNW,297,9.0,15.0,74,0.00,OVC,OVC,0.00,WeatherDisplay:10.23,2013-01-30 06:02:00,
2013-01-29 22:08:00,39.7,31.7,32.89,WNW,300,9.0,14.0,73,0.00,OVC,OVC,0.00,WeatherDisplay:10.23,2013-01-30 06:08:00,
2013-01-29 22:17:00,39.7,31.8,32.89,NW,317,6.0,12.0,73,0.00,OVC,OVC,0.00,WeatherDisplay:10.23,2013-01-30 06:17:00,
2013-01-29 22:22:00,39.7,31.8,32.89,NW,320,6.0,9.0,73,0.00,OVC,OVC,0.00,WeatherDisplay:10.23,2013-01-30 06:22:00,
2013-01-29 22:31:00,39.5,31.6,32.89,NNW,328,8.0,9.0,73,0.00,OVC,OVC,0.00,WeatherDisplay:10.23,2013-01-30 06:31:00,
2013-01-29 22:38:00,39.4,31.4,32.89,NNW,333,8.0,10.0,73,0.00,OVC,OVC,0.00,WeatherDisplay:10.23,2013-01-30 06:38:00,
2013-01-29 22:47:00,39.3,31.4,32.89,North,349,7.0,12.0,73,0.00,OVC,OVC,0.00,WeatherDisplay:10.23,2013-01-30 06:47:00,
2013-01-29 22:53:00,39.3,31.4,32.89,NNW,342,5.0,12.0,73,0.00,OVC,OVC,0.00,WeatherDisplay:10.23,2013-01-30 06:53:00,
2013-01-29 23:08:00,39.1,31.5,32.89,NNW,331,5.0,7.0,74,0.00,OVC,OVC,0.00,WeatherDisplay:10.23,2013-01-30 07:08:00,
2013-01-29 23:17:00,39.0,31.4,32.89,NNW,333,7.0,9.0,74,0.00,OVC,OVC,0.00,WeatherDisplay:10.23,2013-01-30 07:17:00,
2013-01-29 23:23:00,39.3,32.3,32.89,NW,318,8.0,13.0,76,0.00,OVC,OVC,0.00,WeatherDisplay:10.23,2013-01-30 07:23:00,
2013-01-29 23:32:00,40.0,31.0,32.89,NW,310,9.0,14.0,70,0.00,OVC,OVC,0.00,WeatherDisplay:10.23,2013-01-30 07:32:00,
2013-01-29 23:38:00,40.0,31.0,32.89,WNW,302,9.0,15.0,70,0.00,OVC,OVC,0.00,WeatherDisplay:10.23,2013-01-30 07:38:00,
2013-01-29 23:50:00,40.0,30.6,32.89,NW,307,9.0,13.0,69,0.00,OVC,OVC,0.00,WeatherDisplay:10.23,2013-01-30 07:50:00,
2013-01-29 23:57:00,39.8,30.5,32.89,NW,304,7.0,10.0,69,0.00,OVC,OVC,0.00,WeatherDisplay:10.23,2013-01-30 07:57:00,